Regional Weather Roundup
Issued by NWS

Home | Current Version | Previous Version | Graphics & Text | Print | Product List | Glossary On
Versions: 1 2 3 4 5 6 7 8 9 10 11 12 13 14 15 16 17 18 19 20 21 22 23 24 25 26 27 28 29 30 31 32 33 34 35 36 37 38 39 40 41 42 43 44 45 46 47 48 49 50
000
ASUS43 KBIS 172310
RWRND

NORTH DAKOTA REGIONAL WEATHER ROUNDUP
NATIONAL WEATHER SERVICE BISMARCK ND
600 PM CDT WED SEP 17 2014

NOTE: "FAIR" INDICATES FEW OR NO CLOUDS BELOW 12,000 FEET WITH NO
SIGNIFICANT WEATHER AND/OR OBSTRUCTIONS TO VISIBILITY.


NDZ001>003-009>011-017-180000-
NORTHWEST NORTH DAKOTA

CITY           SKY/WX    TMP DP  RH WIND       PRES   REMARKS
WILLISTON      SUNNY     75  41  29 S12       29.92F
MINOT          SUNNY     67  49  52 E12       29.97F
MINOT AFB      SUNNY     66  50  57 E12       29.97F
$$

NDZ018>021-031>035-040>046-180000-
SOUTHWEST NORTH DAKOTA

CITY           SKY/WX    TMP DP  RH WIND       PRES   REMARKS
BISMARCK       MOSUNNY   69  52  54 E6        29.96S
DICKINSON      MOSUNNY   71  47  42 SE13      29.93S
GARRISON         N/A     73  44  35 E9        29.96S
HETTINGER ARPT CLOUDY    67  52  58 SE9       29.94F
$$

NDZ004>008-012>016-024-026-027-054-180000-
NORTHEAST NORTH DAKOTA

CITY           SKY/WX    TMP DP  RH WIND       PRES   REMARKS
GRAND FORKS    SUNNY     64  47  53 NE10      30.01S
GRND FRKS AFB  SUNNY     63  49  60 E9        30.02S
DEVILS LAKE    SUNNY     61  45  55 E9        30.01S
$$

NDZ022-023-025-028>030-036>039-047>053-180000-
SOUTHEAST NORTH DAKOTA

CITY           SKY/WX    TMP DP  RH WIND       PRES   REMARKS
FARGO          SUNNY     72  50  45 N10       29.97S
JAMESTOWN      SUNNY     69  49  48 E9        29.98R
$$




USA.gov is the U.S. government's official web portal to all federal, state and local government web resources and services.